Flag for Germany Weather past 2 weeks in Wittenberge, Mecklenburg-Western Pomerania, Germany

Now
39 °F

Overcast.


Feels Like: 37 °F
Forecast: 35 / 46 °F
Wind: 3 mph from West

Location: Marnitz

Current Time: Mar 5, 2015 at 9:59:39 PM

Latest Report: Mar 5, 2015 at 9:00 PM


Visibility: 28 mi

Pressure: 30.53 "Hg

Humidity: 85%

Dew point: 35 °F

Location of WittenbergeLocation

Historic Weather in Wittenberge — Graph

°F

Wittenberge temperature yesterday

Maximum temperature yesterday: 42 °F (at 4:00 PM)
Minimum temperature yesterday: 33 °F (at 7:00 AM)
Average temperature yesterday: 37 °F

Past Weeks' High & Low Weather Summary

 TemperatureHumidityPressure
High48 °F (Feb 26, 3:00 PM)99% (Feb 23, 5:00 PM)30.53 "Hg (Feb 23, 5:00 PM)
Low29 °F (Feb 20, 5:00 AM)42% (Feb 26, 4:00 PM)29.26 "Hg (Feb 21, 1:00 PM)
Average38 °F82%29.85 "Hg
* Reported Feb 18 9:00 PM — Mar 5 9:00 PM, Wittenberge, Weather by CustomWeather, © 2015

Note: Actual official high and low records may vary slightly from our data, if they occured in-between our weather recording intervals... More about our weather records

Advertising

Wittenberge weather history for previous 24 hours

 ConditionsComfort  
Time TempWeatherWind HumidityBarometerVisibility
9:00 PM
Thu, Mar 5
39 °FOvercast.3 mph85%30.53 "Hg28 mi
8:00 PM38 °FOvercast.2 mph87%30.53 "Hg22 mi
7:00 PM39 °FOvercast.2 mph86%30.52 "Hg34 mi
6:00 PM40 °FOvercast.2 mph80%30.51 "Hg37 mi
5:00 PM44 °FOvercast.5 mph66%30.50 "Hg43 mi
4:00 PM44 °FOvercast.5 mph72%30.49 "Hg37 mi
3:00 PM44 °FOvercast.5 mph66%30.48 "Hg43 mi
2:00 PM44 °FOvercast.6 mph68%30.47 "Hg37 mi
1:00 PM43 °FOvercast.5 mph75%30.48 "Hg37 mi
12:00 PM43 °FOvercast.7 mph80%30.47 "Hg22 mi
11:00 AM40 °FLow clouds.5 mph89%30.47 "Hg15 mi
10:00 AM38 °FLow clouds.6 mph92%30.47 "Hg14 mi
9:00 AM35 °FFog.5 mph99%30.46 "Hg4 mi
8:00 AM34 °FLow clouds.5 mph97%30.44 "Hg6 mi
7:00 AM34 °FLow clouds.6 mph96%30.42 "Hg7 mi
6:00 AM35 °FLow clouds.3 mph93%30.41 "Hg7 mi
5:00 AM35 °FOvercast.3 mph92%30.39 "Hg11 mi
3:00 AM37 °FOvercast.3 mph91%30.32 "Hg22 mi
2:00 AM37 °FOvercast.2 mph95%30.28 "Hg17 mi
1:00 AM37 °FDrizzle. Low clouds.2 mph96%30.24 "Hg8 mi
12:00 AM37 °FLow clouds.3 mph97%30.19 "Hg8 mi
11:00 PM
Wed, Mar 4
37 °FLight freezing rain. Low clouds.3 mph97%30.16 "Hg6 mi
10:00 PM37 °FDrizzle. Low clouds.5 mph96%30.14 "Hg7 mi
9:00 PM37 °FLow clouds.5 mph94%30.11 "Hg15 mi
Weather by CustomWeather, © 2015

See weather overviewHow to use our weather pages